Wind_Speed
14 14 14 16 17 17 18 19 19 19 20 19 18 17 16 15 16 15 15 16 16 18 18 19 19 18 19 18 18 18 22 28 28 21 17 18 22 23 28 24 18 20 22 23 25
15 15 14 15 16 17 18 19 20 20 20 20 20 19 19 18 18 18 17 14 15 16 16 17 19 19 20 20 23 23 28 29 27 20 24 25 28 28 29 29 24 19 23 28 30
15 16 15 16 17 18 19 20 22 22 23 23 22 21 19 20 22 12 14 18 17 17 18 19 19 23 23 23 28 30 36 31 29 28 29 35 35 33 36 39 35 32 27 26 31
17 17 18 18 18 19 21 22 22 23 23 23 23 22 22 22 17 20 22 21 21 22 22 22 23 26 28 30 30 31 32 33 33 31 31 35 39 42 40 39 36 36 32 29 31
20 20 21 21 21 22 22 23 24 24 24 24 24 24 25 23 24 22 21 21 21 21 22 24 24 26 29 30 29 32 34 33 33 36 38 40 41 40 44 38 35 35 35 35 32
21 22 22 22 22 23 24 25 25 25 25 25 26 27 25 28 24 23 22 21 20 19 21 22 23 26 30 30 31 34 35 37 36 37 39 41 44 42 47 38 40 40 37 36 36
22 22 23 24 24 24 24 25 26 27 27 26 26 25 25 25 22 20 18 16 18 19 19 21 21 22 27 32 21 27 36 36 35 35 37 29 46 39 30 24 28 24 22 24 28
23 23 24 25 25 25 25 26 26 27 26 27 26 26 26 21 16 17 24 26 21 20 18 18 19 19 23 26 29 31 34 36 29 27 27 24 50 36 21 21 25 26 26 20 21
24 24 25 25 25 26 26 27 26 26 28 25 28 24 18 14 20 24 21 17 15 13 14 16 17 18 21 23 28 28 35 37 31 23 22 24 41 35 22 29 29 31 28 26 29
25 25 25 25 27 29 28 28 27 27 24 27 18 22 17 21 18 14 14 14 14 13 17 26 24 26 24 25 25 35 35 43 43 37 40 39 46 36 33 28 31 29 31 34 40
25 26 26 27 28 28 26 25 26 23 24 24 24 22 15 14 14 11 19 16 15 25 31 24 25 27 30 25 30 34 39 41 42 33 34 31 39 43 32 26 25 28 29 31 35
25 25 27 28 28 28 27 26 24 24 23 20 13 9 10 13 16 20 19 20 31 29 22 19 20 13 22 25 27 26 29 31 45 37 33 36 44 40 40 34 26 33 35 33 32
27 28 30 30 29 25 24 23 23 24 21 9 7 11 10 16 21 21 31 34 29 22 20 19 20 24 20 28 29 26 23 30 30 41 39 35 44 36 40 43 39 33 32 36 40
30 29 29 28 26 24 22 21 21 22 5 6 12 8 11 17 19 33 31 29 22 26 30 10 14 23 31 28 23 16 24 28 33 33 22 36 20 33 25 24 14 17 26 36 40
30 30 29 28 26 24 23 22 22 18 3 9 9 13 20 30 29 22 29 30 34 27 14 15 25 19 15 18 25 25 35 35 34 28 25 16 15 19 21 25 17 19 18 3 17
30 29 27 25 23 22 21 21 17 4 1 10 11 20 33 27 25 22 28 36 34 14 11 16 9 11 19 24 28 30 31 33 24 25 11 6 16 28 25 23 22 19 21 24 19
30 27 25 24 21 20 21 19 6 3 7 8 19 30 30 19 18 20 35 37 25 18 28 14 10 20 25 34 26 29 32 11 7 6 4 27 8 18 19 21 21 17 17 18 18
26 25 23 20 19 20 19 17 1 6 11 15 25 23 16 17 20 25 28 17 23 25 20 16 8 30 24 25 24 17 18 7 5 5 10 23 6 13 19 19 17 15 12 8 13
23 22 21 19 19 19 17 7 5 9 14 21 18 10 6 15 22 23 14 15 18 26 23 13 13 18 23 25 14 19 20 21 8 21 8 6 8 6 23 22 22 23 19 17 11
20 19 16 19 21 15 18 9 9 13 15 17 12 8 13 22 20 17 9 11 17 25 21 13 11 20 23 20 26 20 14 13 10 4 6 8 9 19 30 29 27 25 24 22 19
21 21 18 20 18 17 15 10 12 13 15 13 16 13 13 17 16 7 9 9 15 23 15 15 10 19 21 19 20 22 26 14 8 7 3 3 5 18 25 28 29 27 26 26 25
21 18 18 22 16 19 15 14 13 14 16 15 14 12 13 14 8 2 8 11 19 15 19 16 8 16 15 12 17 17 19 21 4 8 8 3 3 18 23 24 24 22 21 21 24
21 17 17 15 17 19 16 13 13 17 16 13 11 11 12 10 3 4 6 9 13 12 18 15 10 13 13 16 17 18 21 20 9 7 19 4 3 17 22 26 26 24 20 19 19
20 15 20 13 22 20 19 15 16 17 12 14 11 12 13 3 2 5 9 9 9 11 13 7 12 13 13 19 5 9 17 23 21 13 8 7 17 25 23 33 32 29 26 25 23
20 17 20 18 18 16 14 14 15 13 15 10 10 13 6 4 6 6 6 8 4 12 10 10 13 19 16 7 5 4 13 20 19 15 7 15 13 17 25 35 34 31 28 27 26
19 19 20 18 20 17 16 15 12 14 12 12 11 9 4 6 7 8 4 6 8 14 21 14 18 16 10 6 11 5 8 15 25 18 16 18 18 21 28 36 32 31 29 31 32
20 20 21 20 17 16 16 14 13 13 11 13 12 8 5 4 6 4 2 5 7 7 13 18 18 13 7 17 7 6 10 16 28 19 20 17 23 27 33 39 35 31 29 30 29
Wind_Direction
0 359 360 360 0 2 5 3 360 358 354 352 346 341 333 323 316 313 310 296 289 290 289 284 281 278 276 272 274 276 272 280 285 288 279 261 272 264 264 261 250 238 247 260 266
355 353 351 350 352 352 356 354 350 350 347 346 342 339 334 324 318 321 307 303 298 295 287 284 282 281 275 273 275 272 274 280 287 276 265 258 256 271 270 269 264 254 250 256 262
346 343 342 339 341 341 343 342 342 341 340 338 336 333 328 324 319 318 308 305 300 294 289 286 282 279 275 272 274 276 277 283 274 270 258 268 266 255 261 265 273 276 261 254 254
340 336 334 335 335 334 334 333 331 331 330 329 328 327 324 321 311 307 302 298 295 292 290 287 282 280 279 277 281 274 278 280 279 276 272 266 268 270 265 267 274 272 273 258 250
338 335 333 331 330 328 327 325 324 325 325 324 322 322 321 317 314 307 301 296 292 291 288 286 285 283 279 281 278 272 286 279 279 277 281 283 278 281 273 274 271 270 265 262 258
339 337 333 330 327 325 323 322 322 321 321 321 320 319 317 314 311 305 299 298 298 295 292 289 285 284 286 285 280 291 281 274 275 283 283 284 284 282 279 282 277 269 259 256 254
340 337 333 330 328 325 322 321 319 320 320 320 317 314 313 311 308 308 310 313 311 305 297 294 291 287 289 292 288 285 288 286 282 295 289 288 274 276 294 268 264 258 261 258 251
338 336 335 332 329 328 326 323 322 322 322 320 317 315 311 312 313 316 311 307 305 303 303 303 299 299 294 292 291 292 291 293 307 305 301 288 280 291 283 282 276 280 274 254 248
337 337 336 335 336 336 333 328 324 322 322 319 318 318 316 311 312 313 313 320 328 328 324 321 313 310 301 304 302 302 299 300 304 309 300 290 286 290 279 288 277 278 267 248 237
339 337 337 336 333 330 329 326 323 322 322 320 317 317 308 316 321 331 333 330 328 330 330 323 317 307 308 313 297 303 293 291 294 301 290 278 274 272 292 287 284 279 271 262 260
338 338 339 336 333 329 328 326 325 326 323 321 315 317 320 332 339 348 324 328 325 321 325 323 310 308 315 314 302 297 293 294 296 302 290 294 288 286 292 294 294 284 283 267 255
336 336 337 336 336 333 334 331 330 327 326 322 331 339 338 334 336 332 322 323 319 323 315 311 309 295 287 296 288 289 297 302 287 290 291 291 281 281 293 296 300 288 275 266 259
335 335 335 336 334 333 331 334 334 331 329 344 356 348 356 329 327 322 315 316 322 323 321 311 290 284 290 297 305 305 307 318 321 309 293 299 293 307 305 300 293 281 265 256 253
339 338 336 333 332 333 336 336 338 335 353 12 347 346 334 332 322 323 315 319 321 324 318 314 268 287 299 300 322 325 316 316 317 327 312 306 296 308 299 309 283 252 244 246 247
337 338 338 336 336 339 341 344 346 340 360 338 338 325 325 322 315 313 313 318 326 334 334 328 323 335 321 350 338 322 323 313 308 311 314 319 304 352 44 34 30 24 25 315 231
336 335 335 337 336 339 343 349 346 336 336 318 320 317 319 324 321 320 318 318 326 324 312 325 333 336 328 323 323 336 335 317 303 292 262 321 340 38 30 39 52 58 50 45 33
334 335 337 337 338 341 346 348 337 54 315 299 316 324 322 327 321 324 331 335 360 358 347 12 348 300 317 325 338 358 3 343 348 1 305 328 2 43 29 41 44 53 65 53 33
334 335 336 334 337 342 346 351 334 295 303 299 316 319 319 329 322 330 340 359 10 5 353 352 352 347 3 351 336 351 345 326 295 288 302 317 68 37 25 31 33 41 41 27 28
336 336 332 332 335 340 351 349 332 309 308 317 324 316 310 302 322 338 351 23 16 8 6 339 326 9 10 2 7 350 347 334 262 282 261 195 37 267 9 13 23 27 25 17 4
336 334 327 330 337 350 349 351 325 317 320 321 325 304 304 316 334 359 15 6 360 354 351 348 323 7 2 8 355 1 358 341 347 312 314 67 54 6 5 6 10 12 12 9 6
338 338 331 340 345 347 350 350 331 329 324 324 316 307 310 326 341 23 4 319 334 345 356 357 343 344 6 9 0 3 13 358 296 277 340 341 63 5 6 359 358 359 357 350 347
342 340 337 340 347 349 351 344 332 329 329 324 326 323 320 331 356 33 353 354 339 350 5 357 323 326 348 348 9 35 33 18 291 26 349 49 127 354 357 355 350 347 344 338 339
343 343 343 341 340 349 346 340 335 332 333 329 322 318 320 331 350 339 330 343 344 356 1 349 349 326 341 353 344 22 23 27 22 63 30 16 306 329 346 358 356 344 336 328 332
346 343 346 344 351 345 342 336 338 335 334 329 318 323 330 59 15 275 292 319 358 358 346 349 357 349 323 314 346 21 28 25 30 38 347 2 316 319 344 359 351 342 335 334 329
352 348 349 339 342 340 339 330 336 335 324 333 304 320 357 359 312 289 344 14 1 5 33 16 356 344 348 291 284 357 34 30 36 7 358 336 309 310 338 350 350 339 336 330 327
343 348 346 343 340 340 340 334 337 335 327 325 332 335 299 299 294 328 358 10 24 16 16 11 346 354 9 350 305 260 26 12 10 3 339 327 321 327 331 339 342 334 334 333 331
342 343 347 344 342 336 335 335 336 336 327 330 334 332 322 303 274 264 289 354 39 349 357 358 351 354 325 347 301 252 359 10 3 343 328 329 327 322 320 329 336 333 332 329 325
Height
3156 3155 3153 3151 3149 3147 3144 3142 3140 3137 3135 3132 3130 3128 3126 3124 3122 3121 3119 3119 3117 3115 3115 3114 3113 3112 3112 3112 3112 3111 3110 3106 3106 3109 3109 3108 3106 3105 3105 3106 3107 3107 3106 3105 3104
3156 3154 3153 3151 3149 3146 3143 3141 3139 3136 3134 3131 3128 3126 3124 3122 3120 3118 3117 3115 3113 3112 3111 3110 3109 3108 3108 3108 3106 3106 3104 3103 3104 3103 3101 3101 3102 3100 3100 3099 3102 3103 3104 3103 3101
3156 3154 3152 3149 3147 3145 3142 3140 3137 3134 3131 3129 3126 3124 3121 3119 3117 3115 3113 3112 3110 3108 3108 3107 3105 3104 3104 3102 3101 3099 3095 3099 3099 3098 3097 3093 3094 3095 3093 3090 3095 3097 3099 3098 3095
3154 3152 3150 3148 3145 3143 3140 3137 3134 3132 3129 3126 3123 3120 3118 3117 3117 3112 3109 3107 3106 3104 3103 3102 3100 3098 3097 3095 3095 3089 3090 3089 3089 3090 3088 3087 3085 3082 3084 3085 3089 3087 3088 3090 3089
3153 3150 3148 3145 3143 3140 3137 3134 3131 3128 3125 3122 3119 3116 3113 3112 3111 3107 3105 3103 3102 3100 3099 3097 3097 3093 3091 3090 3088 3082 3083 3082 3081 3081 3080 3077 3076 3075 3070 3079 3080 3079 3079 3079 3081
3151 3148 3146 3143 3140 3137 3134 3131 3127 3124 3121 3118 3115 3112 3109 3107 3104 3102 3100 3098 3097 3097 3095 3093 3092 3090 3086 3085 3083 3080 3077 3074 3075 3075 3073 3070 3066 3066 3063 3070 3066 3066 3067 3069 3071
3150 3147 3143 3140 3137 3134 3131 3127 3123 3120 3117 3113 3111 3107 3104 3103 3099 3097 3096 3096 3094 3093 3091 3089 3088 3087 3084 3079 3078 3073 3068 3068 3071 3071 3066 3065 3049 3055 3059 3058 3056 3056 3056 3058 3061
3148 3145 3142 3138 3135 3131 3128 3124 3120 3116 3113 3109 3106 3103 3100 3098 3096 3094 3093 3091 3090 3087 3086 3085 3083 3084 3080 3077 3073 3070 3065 3058 3061 3066 3063 3062 3036 3052 3056 3054 3053 3052 3053 3053 3054
3146 3142 3139 3135 3132 3128 3124 3121 3117 3113 3109 3105 3101 3099 3097 3095 3094 3091 3089 3087 3086 3086 3084 3083 3081 3080 3078 3074 3069 3066 3058 3055 3055 3059 3057 3055 3041 3048 3051 3049 3048 3049 3049 3047 3046
3143 3139 3136 3132 3128 3124 3120 3117 3113 3109 3105 3102 3098 3099 3095 3093 3090 3088 3087 3086 3085 3084 3083 3081 3077 3076 3074 3074 3066 3060 3057 3052 3051 3051 3048 3046 3034 3041 3043 3042 3040 3040 3039 3040 3038
3141 3137 3133 3129 3124 3120 3116 3113 3111 3107 3102 3099 3095 3092 3091 3089 3088 3087 3084 3082 3082 3080 3076 3076 3074 3071 3070 3069 3064 3059 3053 3046 3044 3044 3034 3034 3028 3028 3032 3032 3031 3032 3029 3025 3020
3138 3134 3130 3126 3121 3116 3111 3107 3104 3102 3097 3094 3093 3091 3089 3086 3086 3084 3081 3081 3077 3074 3071 3072 3071 3069 3065 3062 3054 3050 3045 3039 3027 3030 3031 3026 3018 3023 3025 3026 3026 3019 3016 3012 3012
3135 3131 3126 3122 3117 3114 3108 3104 3100 3097 3095 3092 3091 3090 3090 3088 3083 3081 3076 3074 3070 3069 3067 3066 3065 3058 3055 3049 3044 3044 3038 3032 3031 3016 3023 3022 3012 3016 3019 3015 3019 3006 3003 3000 2999
3132 3128 3123 3118 3115 3109 3105 3101 3097 3093 3090 3093 3090 3088 3088 3083 3080 3075 3070 3069 3067 3064 3060 3061 3058 3052 3047 3044 3041 3039 3035 3030 3024 3024 3020 3022 3009 3017 3008 3002 2997 2990 2990 2990 2990
3128 3123 3119 3114 3111 3107 3103 3098 3095 3090 3091 3092 3088 3085 3081 3084 3081 3076 3064 3062 3059 3060 3057 3057 3052 3046 3045 3044 3042 3036 3030 3025 3022 3020 3018 3016 3013 3012 3002 2999 2995 2989 2985 2981 2980
3125 3120 3115 3112 3108 3105 3100 3095 3091 3091 3089 3089 3087 3083 3078 3076 3069 3069 3061 3060 3058 3056 3055 3055 3050 3047 3043 3041 3039 3032 3022 3015 3014 3013 3011 3012 3013 3011 3005 3004 2996 2989 2984 2981 2975
3122 3117 3113 3108 3105 3100 3097 3094 3092 3087 3093 3089 3084 3079 3073 3071 3067 3065 3058 3049 3049 3048 3048 3049 3049 3046 3041 3031 3031 3023 3017 3018 3016 3014 3010 3007 3010 3015 3009 3004 2999 2988 2982 2980 2977
3118 3114 3109 3105 3102 3097 3094 3093 3090 3090 3088 3086 3081 3076 3071 3068 3065 3065 3058 3055 3052 3051 3049 3047 3046 3043 3041 3037 3031 3028 3027 3026 3019 3015 3010 3007 3009 3015 3009 3005 3000 2993 2986 2981 2979
3115 3111 3106 3102 3098 3095 3094 3092 3092 3088 3086 3082 3079 3074 3072 3067 3068 3064 3059 3058 3055 3053 3053 3048 3047 3044 3041 3036 3033 3030 3026 3021 3015 3010 3009 3005 3011 3003 3005 3001 2996 2989 2984 2983 2981
3112 3107 3103 3099 3096 3094 3092 3090 3088 3086 3083 3078 3076 3073 3069 3064 3065 3062 3061 3061 3057 3056 3052 3051 3045 3043 3039 3036 3033 3029 3027 3021 3018 3014 3004 3008 3012 3015 3005 3001 2997 2992 2989 2986 2983
3108 3104 3100 3098 3095 3092 3090 3089 3086 3084 3081 3079 3073 3070 3068 3065 3064 3062 3061 3061 3057 3055 3053 3050 3048 3045 3040 3037 3032 3028 3024 3021 3019 3016 3010 3008 3022 3018 3012 3006 3000 2996 2991 2987 2983
3105 3103 3098 3094 3094 3088 3087 3086 3085 3081 3079 3076 3074 3069 3067 3065 3063 3061 3060 3058 3057 3055 3052 3050 3046 3044 3041 3040 3036 3032 3027 3022 3017 3019 3015 3012 3022 3017 3014 3009 3004 3000 2995 2990 2985
3103 3100 3096 3092 3089 3084 3083 3083 3082 3080 3077 3072 3069 3065 3062 3063 3062 3061 3059 3058 3055 3054 3052 3049 3047 3043 3040 3039 3035 3030 3027 3024 3022 3019 3020 3019 3019 3015 3013 3009 3003 2997 2993 2987 2984
3100 3098 3095 3091 3087 3083 3079 3077 3076 3074 3074 3070 3068 3066 3063 3062 3061 3059 3057 3056 3054 3053 3050 3048 3046 3045 3044 3039 3036 3033 3029 3025 3022 3022 3023 3022 3017 3011 3009 3004 2998 2993 2989 2986 2979
3099 3097 3094 3090 3084 3082 3080 3077 3074 3073 3070 3070 3064 3062 3061 3059 3058 3057 3056 3054 3053 3052 3049 3047 3044 3042 3039 3036 3034 3033 3030 3027 3024 3024 3022 3019 3015 3011 3007 3003 2997 2991 2987 2980 2975
3099 3095 3091 3086 3080 3077 3074 3072 3070 3070 3071 3067 3064 3061 3059 3058 3057 3056 3055 3053 3052 3051 3049 3046 3043 3040 3037 3035 3034 3031 3030 3028 3025 3022 3020 3016 3013 3009 3005 3001 2997 2989 2984 2977 2971
3092 3091 3087 3083 3078 3075 3072 3069 3067 3065 3064 3065 3063 3060 3058 3058 3056 3055 3055 3054 3051 3051 3048 3046 3043 3039 3036 3034 3030 3030 3028 3027 3025 3021 3018 3013 3009 3004 2999 2995 2991 2985 2980 2975 2969